Location: Allie Creek
(37.5926°N, 89.8526°W)
Time: 18:47:06
(UTC+00:00)

USA 267 - Pass Details

Date: 26 September 2023
Orbit: 1102 x 1105 km, 123.0° (Epoch: 07 December)

Event Time Altitude Azimuth Distance (km) Brightness Sun altitude
Exits shadow 02:41:22 47° 16° (NNE) 1,432 3.8 -33.2°
Drops below altitude 10° 02:46:53 10° 324° (NW) 2,968 6.2 -34.2°
Sets 02:49:27 0° 319° (NW) 3,928 7.1 -34.6°
